Home   Weather   Nadi   Past weeks
Flag for Fiji

Past Weather in Nadi, Fiji — Yesterday and Last 2 Weeks

Now
84 °F

Scattered clouds.


Feels Like: 90 °F
Forecast: 88 / 76 °F
Wind: 3 mph from Northwest

Location: Nandi

Current Time: Mar 19, 2019 at 7:06:55 pm

Latest Report: Mar 19, 2019 at 6:00 pm


Visibility: N/A

Pressure: 29.80 "Hg

Humidity: 66%

Dew Point: 72 °F

Location of NadiLocation

Past Weather in Nadi — Graph

°F

Nadi Temperature Yesterday

Maximum temperature yesterday: 90 °F (at 11:00 am)
Minimum temperature yesterday: 73 °F (at 2:00 am)
Average temperature yesterday: 80 °F

High & Low Weather Summary for the Past Weeks

 TemperatureHumidityPressure
High90 °F (Mar 8, 11:00 am)100% (Mar 4, 8:00 pm)29.95 "Hg (Mar 4, 8:00 pm)
Low72 °F (Mar 19, 4:00 am)55% (Mar 18, 11:00 am)29.74 "Hg (Mar 14, 3:00 pm)
Average80 °F85%29.85 "Hg
* Reported Mar 4 6:00 pm — Mar 19 6:00 pm, Nadi. Weather by CustomWeather, © 2019

Note: Actual official high and low records may vary slightly from our data, if they occured in-between our weather recording intervals... More about our weather records

Advertising

Nadi Weather History for the Previous 24 Hours

Scroll right to see more
 ConditionsComfort  
Time TempWeatherWind HumidityBarometerVisibility
6:00 pm
Tue, Mar 19
84 °FScattered clouds.3 mph66%29.80 "HgN/A
5:00 pm86 °FBroken clouds.6 mph66%29.77 "HgN/A
4:00 pm88 °FScattered clouds.8 mph55%29.77 "HgN/A
3:00 pm88 °FScattered clouds.13 mph62%29.77 "HgN/A
2:00 pm86 °FScattered clouds.12 mph66%29.77 "HgN/A
1:00 pm86 °FScattered clouds.12 mph79%29.80 "HgN/A
12:00 pm86 °FScattered clouds.10 mph70%29.83 "HgN/A
11:00 am86 °FScattered clouds.7 mph66%29.83 "HgN/A
10:00 am86 °FPassing clouds.5 mph62%29.86 "HgN/A
9:00 am84 °FPassing clouds.7 mph70%29.86 "HgN/A
8:00 am79 °FPassing clouds.6 mph79%29.83 "HgN/A
7:00 am73 °FPassing clouds.3 mph89%29.83 "HgN/A
6:00 am72 °FPassing clouds.5 mph100%29.80 "HgN/A
5:00 am72 °FPassing clouds.5 mph94%29.80 "HgN/A
4:00 am72 °FPassing clouds.3 mph94%29.77 "HgN/A
3:00 am73 °FPassing clouds.5 mph94%29.77 "HgN/A
2:00 am73 °FPassing clouds.7 mph94%29.80 "HgN/A
1:00 am75 °FPassing clouds.6 mph89%29.80 "HgN/A
12:00 am73 °FPassing clouds.5 mph94%29.83 "HgN/A
11:00 pm
Mon, Mar 18
75 °FPassing clouds.6 mph89%29.83 "HgN/A
10:00 pm75 °FPassing clouds.6 mph94%29.86 "HgN/A
9:00 pm77 °FPassing clouds.5 mph89%29.83 "HgN/A
8:00 pm77 °FPassing clouds.5 mph89%29.83 "HgN/A
7:00 pm79 °FPartly cloudy.7 mph89%29.80 "HgN/A
Weather by CustomWeather, © 2019

See weather overview